Tracking 19651 objects as of 22-Apr-2019
HD Live streaming from Space Station
objects crossing your sky now

KALAMSAT-V2/PSLV

Track KALAMSAT-V2/PSLV now!
10-day predictions
KALAMSAT-V2/PSLV is classified as:


NORAD ID: 43948
Int'l Code: 2019-006B
Perigee: 452.6 km
Apogee: 458.3 km
Inclination: 98.8 °
Period: 93.6 minutes
Semi major axis: 6826 km
RCS: Unknown
Launch date: January 24, 2019
Source: India (IND)
Launch site: SRIHARIKOTA (SRI)

Uplink (MHz):
Downlink (MHz): 436.500
Beacon (MHz):
Mode:
Call sign:
Status: Unknown

aabbcc
Your satellite tracking list
Your tracking list is empty




NASA's NSSDC Master Catalog

Two Line Element Set (TLE):
1 43948U 19006B   19112.36300515  .00001198  00000-0  33676-4 0  9999
2 43948  98.7968  43.9812 0004125 323.9647  36.1313 15.39257068 13467
Source of the keplerian elements: AFSPC